Location: ??????
(41.3747°N, 22.5491°E)
Time: 14:37:52
(UTC+00:00)

NOAA 11 - Pass Details

Date: 01 December 2020
Orbit: 834 x 849 km, 98.4° (Epoch: 20 January)

Event Time Altitude Azimuth Distance (km) Brightness Sun altitude
Rises 15:58:26 0° 156° (SSE) 3,367 7.3 -10.6°
Reaches altitude 10° 16:00:47 10° 154° (SSE) 2,438 6.5 -11.0°
Maximum altitude 16:06:08 65° 73° (ENE) 916 4.1 -12.0°
Drops below altitude 10° 16:11:31 10° 353° (N) 2,461 6.5 -12.9°
Sets 16:13:55 0° 350° (N) 3,402 7.3 -13.4°
